• Join FlightAware (Why Join?)
  • Login
  • US Flag 
09:40PM EST


 

Airport Tracker/Info


-or-


 

Live Flight TrackerFlight Track Log ✈ N447SC ✈ 19-May-2013 ✈ KCPS - KBMI

Flight Track Log - Related Links

Times and Time Zones

All times are in EDT time to prevent confusion due to time zone crossing. See the N447SC flight status page for this flight to view local times or setup timezone preferences in your user account.

Time Position Orientation Groundspeed Altitude Reporting Facility
EDT Latitude Longitude Course Direction KTS MPH feet Rate Location/Type
05:48PM 38.5667 -90.1167 21° North 98 113 1,700  Level Gateway (St. Louis) TRACON
05:49PM 38.5667 -90.0833 90° East 98 113 2,500 840 Climbing Gateway (St. Louis) TRACON
05:50PM 38.5833 -90.0500 57° Northeast 112 129 3,300 780 Climbing Gateway (St. Louis) TRACON
05:50PM 38.6000 -90.0333 38° Northeast 114 131 4,000 720 Climbing Gateway (St. Louis) TRACON
05:51PM 38.6333 -90.0167 21° North 132 152 4,700 720 Climbing Gateway (St. Louis) TRACON
05:52PM 38.6375 -90.0203 326° Northwest 118 136 4,900 600 Climbing Kansas City Center
05:53PM 38.7917 -90.0041 21° North  Level FlightAware Approximate
05:53PM 38.6800 -89.9881 31° Northeast 136 157 5,600  Level Kansas City Center
05:54PM 38.7167 -89.9647 26° Northeast 143 165 6,500 660 Climbing Kansas City Center
05:55PM 38.7547 -89.9467 20° North 145 167 7,000 180 Climbing Kansas City Center
05:56PM 38.8025 -89.9189 24° Northeast 181 208 6,900 -60 Descending Kansas City Center
05:57PM 38.8519 -89.8883 26° Northeast 195 224 6,900  Level Kansas City Center
05:58PM 38.9164 -89.8553 22° Northeast 206 237 7,000  Climbing Kansas City Center
05:59PM 38.9672 -89.8231 26° Northeast 203 234 6,900  Descending Kansas City Center
06:00PM 39.0244 -89.7919 23° Northeast 205 236 7,000  Climbing Kansas City Center
06:01PM 39.0764 -89.7628 24° Northeast 204 235 7,000 -60 Level Kansas City Center
06:02PM 39.1300 -89.7322 24° Northeast 210 242 6,900  Descending Kansas City Center
06:03PM 39.1811 -89.7017 25° Northeast 206 237 7,000  Climbing Kansas City Center
06:04PM 39.2275 -89.6722 26° Northeast 204 235 6,900  Descending Kansas City Center
06:05PM 39.2900 -89.6353 25° Northeast 205 236 7,000  Climbing Kansas City Center
06:06PM 39.3408 -89.6014 27° Northeast 206 237 6,900  Descending Kansas City Center
06:07PM 39.3928 -89.5739 22° Northeast 204 235 7,000  Climbing Kansas City Center
06:08PM 39.4456 -89.5431 24° Northeast 206 237 7,000 -60 Level Kansas City Center
06:09PM 39.4964 -89.5094 27° Northeast 206 237 6,900  Descending Kansas City Center
06:10PM 39.5467 -89.4781 26° Northeast 203 234 7,000  Climbing Kansas City Center
06:11PM 39.5981 -89.4472 25° Northeast 204 235 6,900 -60 Descending Kansas City Center
06:12PM 39.6600 -89.4097 25° Northeast 204 235 6,900  Level Kansas City Center
06:13PM 39.7056 -89.3825 25° Northeast 204 235 6,900  Level Kansas City Center
06:14PM 39.7561 -89.3506 26° Northeast 202 232 6,900 -240 Level Kansas City Center
06:15PM 39.8175 -89.3156 24° Northeast 202 232 6,500 -420 Descending Kansas City Center
06:16PM 39.8692 -89.2872 23° Northeast 201 231 6,100 -420 Descending Kansas City Center
06:17PM 39.9183 -89.2575 25° Northeast 198 228 5,700 -360 Descending Kansas City Center
06:18PM 39.9694 -89.2294 23° Northeast 198 228 5,400 -360 Descending Kansas City Center
06:20PM 40.0178 -89.2017 24° Northeast 193 222 5,000 -480 Descending Kansas City Center
06:21PM 40.0642 -89.1689 28° Northeast 190 219 4,500 -480 Descending Kansas City Center
06:22PM 40.1122 -89.1378 26° Northeast 191 220 4,100 -300 Descending Kansas City Center
06:22PM 40.1506 -89.1136 26° Northeast 191 220 4,000 -60 Descending Chicago Center
06:23PM 40.1967 -89.0858 25° Northeast 189 217 4,000 -60 Level Chicago Center
06:24PM 40.2431 -89.0589 24° Northeast 186 214 3,900 -60 Descending Chicago Center
06:25PM 40.3039 -89.0581 North 186 214 3,900  Level Chicago Center
06:26PM 40.3469 -89.0836 336° Northwest 184 212 3,900  Level Chicago Center
06:27PM 40.3753 -89.1344 306° West 183 211 3,900 -120 Level Chicago Center
06:28PM 40.4233 -89.1172 15° North 185 213 3,700 -360 Descending Chicago Center
06:30PM 40.4653 -89.0772 36° Northeast 186 214 3,200 -540 Descending Chicago Center
06:31PM 40.4947 -89.0297 51° Northeast 178 205 2,600 -660 Descending Chicago Center
06:32PM 40.4958 -88.9778 88° East 160 184 1,900 -720 Descending Chicago Center
06:33PM 40.4861 -88.9347 107° East 134 154 1,200 -720 Descending Chicago Center